Chickasha, OK

7:22 PM CDT on June 28, 2017 (GMT -0500)
Chickasha Municipal

Weather History for KCHK - March, 2013

Change the Weather History Date:

Sunday, March 31, 2013

  Actual Average Record
Temperature  
Mean Temperature 59 °F -  
Max Temperature 68 °F 69 °F 93 °F (1966)
Min Temperature 50 °F 40 °F 24 °F (1972)
Degree Days  
Heating Degree Days 6    
Growing Degree Days 9 (Base 50)    
Moisture  
Dew Point 51 °F    
Average Humidity 77    
Maximum Humidity 100    
Minimum Humidity 49    
Precipitation  
Precipitation 0.35 in - - ()
Sea Level Pressure  
Sea Level Pressure 29.98 in    
Wind  
Wind Speed 12 mph (North)    
Max Wind Speed 44 mph    
Max Gust Speed 55 mph    
Visibility 10 miles    
Events Rain    
Averages and records for this station are not official NWS values.
T = Trace of Precipitation, MM = Missing Value Source: NWS Daily Summary

Daily Weather History Graph

Daily Weather History Graph

Search for Another Location

Airport or City:

Trip Planner

Search our weather history database for the weather conditions in past years. The results will help you decide how hot, cold, wet, or windy it might be!

Date:

Astronomy

Mar. 31, 2013 Rise Set
Actual Time 7:19 AM CDT 7:52 PM CDT
Civil Twilight 6:54 AM CDT 8:18 PM CDT
Nautical Twilight 6:24 AM CDT 8:48 PM CDT
Astronomical Twilight 5:53 AM CDT 9:18 PM CDT
Moon No Moon Rise 10:18 AM CDT (3/31)
Length of Visible Light 13h 24m
Length of Day
12h 33m
Waning Gibbous, 77% of the Moon is Illuminated
Mar 31
Waning Gibbous
Apr 2
Last Quarter
Apr 10
New
Apr 18
First Quarter
Apr 25
Full

Hourly Weather History & Observations

Time (CDT) Temp. Dew Point Humidity Pressure Visibility Wind Dir Wind Speed Gust Speed Precip Events Conditions
12:15 AM 60.8 °F 57.2 °F 88% 29.89 in 10.0 mi SE 3.5 mph - N/A   Clear
12:35 AM 59.0 °F 55.4 °F 88% 29.89 in 10.0 mi Calm Calm - N/A   Clear
12:55 AM 60.8 °F 59.0 °F 94% 29.89 in 10.0 mi Calm Calm - N/A   Clear
1:15 AM 60.8 °F 57.2 °F 88% 29.89 in 10.0 mi NE 4.6 mph - N/A   Clear
1:35 AM 55.4 °F 55.4 °F 100% 29.89 in 10.0 mi NNE 9.2 mph - N/A   Clear
1:55 AM 59.0 °F 57.2 °F 94% 29.89 in 10.0 mi NE 5.8 mph - N/A   Clear
2:15 AM 59.0 °F 57.2 °F 94% 29.89 in 10.0 mi NNE 10.4 mph - N/A   Clear
2:35 AM 59.0 °F 57.2 °F 94% 29.90 in 10.0 mi North 8.1 mph - N/A   Clear
2:55 AM 57.2 °F 55.4 °F 94% 29.90 in 10.0 mi North 8.1 mph - N/A   Clear
3:15 AM 55.4 °F 55.4 °F 100% 29.89 in 10.0 mi NE 6.9 mph - N/A   Clear
3:35 AM 59.0 °F 57.2 °F 94% 29.92 in 10.0 mi North 17.3 mph 28.8 mph N/A   Mostly Cloudy
3:55 AM 59.0 °F 55.4 °F 88% 29.93 in 10.0 mi North 19.6 mph 29.9 mph N/A   Overcast
4:15 AM 57.2 °F 55.4 °F 94% 29.95 in 7.0 mi NNE 19.6 mph 29.9 mph 0.27 in Rain Light Rain
4:35 AM 59.0 °F 55.4 °F 88% 29.94 in 10.0 mi North 25.3 mph 31.1 mph 0.28 in   Overcast
4:55 AM 55.4 °F 53.6 °F 94% 29.94 in 10.0 mi North 39.1 mph 47.2 mph 0.28 in   Overcast
5:15 AM 53.6 °F 50.0 °F 88% 29.97 in 10.0 mi North 32.2 mph 47.2 mph N/A   Mostly Cloudy
5:35 AM 51.8 °F 50.0 °F 94% 29.89 in 10.0 mi NNE 43.7 mph 55.2 mph 0.03 in Rain Light Rain
5:55 AM 53.6 °F 51.8 °F 94% 29.92 in 10.0 mi NNE 34.5 mph 49.5 mph 0.03 in   Scattered Clouds
6:15 AM 53.6 °F 50.0 °F 88% 30.02 in 10.0 mi NNW 25.3 mph 34.5 mph N/A   Mostly Cloudy
6:35 AM 53.6 °F 51.8 °F 94% 29.94 in 10.0 mi NNE 32.2 mph 46.0 mph 0.02 in Rain Light Rain
6:55 AM 53.6 °F 51.8 °F 94% 30.01 in 10.0 mi North 16.1 mph 24.2 mph 0.02 in   Overcast
7:15 AM 53.6 °F 51.8 °F 94% 29.96 in 10.0 mi North 23.0 mph 31.1 mph 0.01 in Rain Light Rain
7:35 AM 53.6 °F 51.8 °F 94% 29.90 in 10.0 mi NNE 32.2 mph 39.1 mph 0.02 in   Overcast
7:55 AM 53.6 °F 51.8 °F 94% 29.92 in 10.0 mi NNE 28.8 mph 34.5 mph 0.02 in   Scattered Clouds
8:15 AM 53.6 °F 50.0 °F 88% 29.91 in 10.0 mi NNE 25.3 mph 39.1 mph N/A   Scattered Clouds
8:35 AM 53.6 °F 50.0 °F 88% 29.95 in 10.0 mi North 17.3 mph 29.9 mph N/A   Scattered Clouds
8:55 AM 53.6 °F 50.0 °F 88% 30.02 in 10.0 mi North 20.7 mph 26.5 mph N/A   Mostly Cloudy
9:15 AM 53.6 °F 50.0 °F 88% 30.03 in 10.0 mi NNW 17.3 mph - N/A   Mostly Cloudy
9:35 AM 53.6 °F 50.0 °F 88% 30.03 in 10.0 mi North 15.0 mph - N/A   Mostly Cloudy
9:55 AM 53.6 °F 50.0 °F 88% 30.01 in 10.0 mi NNE 18.4 mph 24.2 mph N/A   Overcast
10:15 AM 53.6 °F 50.0 °F 88% 29.98 in 10.0 mi NNE 23.0 mph - N/A   Scattered Clouds
10:35 AM 53.6 °F 50.0 °F 88% 29.98 in 10.0 mi NNE 25.3 mph - N/A   Clear
10:55 AM 55.4 °F 51.8 °F 88% 30.00 in 10.0 mi NNE 23.0 mph 28.8 mph N/A   Clear
11:15 AM 55.4 °F 50.0 °F 82% 30.01 in 10.0 mi NNE 19.6 mph 31.1 mph N/A   Clear
11:35 AM 55.4 °F 50.0 °F 82% 30.02 in 10.0 mi NNE 19.6 mph 25.3 mph N/A   Clear
11:55 AM 59.0 °F 50.0 °F 72% 30.04 in 10.0 mi NNE 20.7 mph 27.6 mph N/A   Clear
12:15 PM 60.8 °F 50.0 °F 68% 30.04 in 10.0 mi NNE 19.6 mph 23.0 mph N/A   Clear
12:35 PM 60.8 °F 50.0 °F 68% 30.04 in 10.0 mi NE 17.3 mph 23.0 mph N/A   Clear
12:55 PM 60.8 °F 50.0 °F 68% 30.05 in 10.0 mi NE 18.4 mph 24.2 mph N/A   Clear
1:15 PM 62.6 °F 50.0 °F 63% 30.05 in 10.0 mi NNE 11.5 mph - N/A   Clear
1:35 PM 62.6 °F 50.0 °F 63% 30.05 in 10.0 mi North 12.7 mph - N/A   Clear
1:55 PM 64.4 °F 50.0 °F 59% 30.05 in 10.0 mi North 10.4 mph - N/A   Clear
2:15 PM 66.2 °F 50.0 °F 56% 30.04 in 10.0 mi NNE 6.9 mph 10.4 mph N/A   Clear
2:35 PM 66.2 °F 50.0 °F 56% 30.04 in 10.0 mi North 9.2 mph - N/A   Clear
2:55 PM 66.2 °F 50.0 °F 56% 30.04 in 10.0 mi NNE 8.1 mph - N/A   Clear
3:15 PM 66.2 °F 48.2 °F 52% 30.03 in 10.0 mi NNW 5.8 mph - N/A   Clear
3:35 PM 68.0 °F 50.0 °F 52% 30.02 in 10.0 mi North 4.6 mph - N/A   Clear
3:55 PM 68.0 °F 50.0 °F 52% 30.02 in 10.0 mi NNE 8.1 mph - N/A   Clear
4:15 PM 68.0 °F 48.2 °F 49% 30.01 in 10.0 mi North 9.2 mph - N/A   Clear
4:35 PM 68.0 °F 50.0 °F 52% 30.01 in 10.0 mi NNW 8.1 mph - N/A   Clear
4:55 PM 68.0 °F 50.0 °F 52% 30.01 in 10.0 mi North 4.6 mph - N/A   Clear
5:15 PM 68.0 °F 50.0 °F 52% 30.00 in 10.0 mi North 6.9 mph - N/A   Clear
5:35 PM 68.0 °F 50.0 °F 52% 30.00 in 10.0 mi North 6.9 mph - N/A   Clear
5:55 PM 68.0 °F 50.0 °F 52% 29.99 in 10.0 mi NW 3.5 mph - N/A   Clear
6:15 PM 68.0 °F 50.0 °F 52% 29.98 in 10.0 mi North 5.8 mph - N/A   Clear
6:35 PM 66.2 °F 46.4 °F 49% 29.98 in 10.0 mi NNW 4.6 mph - N/A   Clear
7:15 PM 64.4 °F 46.4 °F 52% 29.98 in 10.0 mi NNE 3.5 mph - N/A   Scattered Clouds
7:35 PM 62.6 °F 46.4 °F 55% 29.98 in 10.0 mi NE 3.5 mph - N/A   Clear
8:15 PM 60.8 °F 44.6 °F 55% 29.98 in 10.0 mi Calm Calm - N/A   Clear
8:35 PM 60.8 °F 44.6 °F 55% 29.98 in 10.0 mi Calm Calm - N/A   Clear
8:55 PM 59.0 °F 46.4 °F 63% 29.99 in 10.0 mi Calm Calm - N/A   Clear
9:15 PM 55.4 °F 44.6 °F 67% 29.99 in 10.0 mi Calm Calm - N/A   Scattered Clouds
9:35 PM 55.4 °F 48.2 °F 77% 30.01 in 10.0 mi Calm Calm - N/A   Clear
9:55 PM 55.4 °F 46.4 °F 72% 30.01 in 10.0 mi Calm Calm - N/A   Clear
10:15 PM 53.6 °F 48.2 °F 82% 30.01 in 10.0 mi West 3.5 mph - N/A   Clear
10:35 PM 53.6 °F 50.0 °F 88% 30.01 in 10.0 mi SW 3.5 mph - N/A   Clear
10:55 PM 51.8 °F 46.4 °F 82% 30.02 in 10.0 mi Calm Calm - N/A   Scattered Clouds
11:15 PM 50.0 °F 46.4 °F 87% 30.02 in 10.0 mi Calm Calm - N/A   Clear
11:35 PM 51.8 °F 46.4 °F 82% 30.02 in 10.0 mi Calm Calm - N/A   Clear